Forside
METAR-TAF:

METAR-TAF

Lufthavne :

Metcalf Field

Toledo, Ohio, USA

Breddekreds: 41-33-47N, længdekreds: 083-28-35W, højde: 189 m

Aktuelle vejr

Denne rapport blev lavet for 38 minutter siden, kl. 01:53 UTC
Vind 6 kt fra syd
Temperatur 24°C
Fugtighed 69%
Tryk 1014 hPa
Sigt: 16.1 km
skyfri

METAR: KTDZ 250153Z AUTO 18006KT 10SM CLR 24/18 A2995 RMK AO2 SLP138 T02390183

Tid: 22:31 (02:31 UTC)


TAF: fraværende

Vejrobservationer og prognoser fra mere end 4000 lufthavne (METAR og TAF).

De gule og røde prikker repræsenterer de meteorologiske stationer.

Flyt musen over at se navnet på stationen.

Så klik over at se vejr observationer og prognoser.

At skifte det kort: Klik på de grønne knapper med et sort kors for at zoome ind; på den grønne knap med en bindestreg for at zoome ud; eller på de grønne pile for tilstødende kort.


METAR-TAF: